COSMOS 2251 DEB, 33761

Orbit data source: Space-Track

COSMOS 2251 DEB, 33761 is space debris in LEO originally from a launch on Wed, 16 Jun 1993 UTC launched from the Plesetsk Missile And Space Complex (PKMTR). The debris from Iridium 33, an American commercial communications satellite, has been tracked extensively since its accidental collision with the defunct Russian satellite Cosmos 2251 in 2009. This event, occurring at high speed in low Earth orbit (LEO), generated thousands of pieces of space debris, significantly increasing the risk of further collisions. The Iridium 33 debris cloud has impacted space traffic management and orbital debris mitigation strategies, making it a subject of ongoing study in space situational awareness.

Loading next visibility...
Identifier
33761, 1993-036J
Orbit
LEO
Country
Flag of CISCIS
Related business
Manufacturer
Unknown
Mission
Spacecraft
Bus & Motor
Unknown
Mass
Unknown
Launch date (UTC)
1993-06-16 (33 years ago)
Launch vehicle
Unknown
Launch site
Plesetsk Missile And Space Complex (PKMTR)
Object type
Payload
Rocket body
Debris
Shape & HBR
Unknown shape, 0.1 m
Radar Cross Section
Small (<0.1 m²)

Expand to show TLE details & history
Last TLE update: 13 hours ago

TLE from 13 hours ago
0 COSMOS 2251 DEB
1 33761U 93036J   26123.03961580  .00001091  00000-0  33298-3 0  9996
2 33761  74.0370 349.9060 0022222  39.7849  80.7440 14.42966861902724
Epoch: 2026-05-03T00:57Z
TLE epoch observation values (Epoch: 2026-05-03T00:57:02.805Z)
Latitude
55.79937°
Longitude
-90.05379°
Altitude
755.134 km
Speed
7.484 km/s
True Right ascension
09h 40m 37s
True Declination
55° 38' 21"
Sunlit
Object was in daylight at epoch
Visualization orbit readout
Latitude
Unknown
Longitude
Unknown
Altitude
Unknown
Speed
Unknown
Apparent Right ascension
Unknown
Apparent Declination
Unknown
Sunlit
N/A
Visualization observer readout
Local Sidereal Time
21:47:47
Azimuth
Unknown
Elevation
Unknown
Doppler factor
Unknown
Orbital elements
Apogee altitude
762.161 km
Perigee altitude
730.497 km
Semi-major axis
7,124.466 km
Eccentricity
0.00222
Inclination
74.037°
RAAN
349.906°
Arg. of periapsis
39.7849°
True anomaly
80.99544°
Mean anomaly
80.744°
Eccentric anomaly
80.86971°
Mean motion
3.60923 °/min
Orbital period
99.74 mins
BSTAR
0.00033298
Loading maneuver chart data...
Computing Atmospheric mass density...
Loading historical data...
Loading historical data...
Loading historical data...
Loading historical data...
Loading historical data...
Loading historical data...
Loading historical data...

Documentation

Showing up to 5 results
|